User: anonymous   Login
Location: Newark
(21.8258°S, 114.1586°E)
Time: 10:32:24
(UTC+00:00)
Language:

N. Korean satellite - Orbit

View from above orbital plane
View from above orbital plane
View from above satellite
View from above satellite

Ground track
Ground track

The orbit data is extracted from the following two-line orbital elements,

1 39026U 12072A   20022.99139706  .00000735  00000-0  28749-4 0  9991
2 39026  97.2175  24.2072 0038882  46.9125 313.5358 15.28293236394933
Epoch (UTC): 22 January 2020 23:47:36
Eccentricity: 0.0038882
inclination: 97.2175°
perigee height: 454 km
apogee height: 507 km
right ascension of ascending node: 24.2072°
argument of perigee: 46.9125°
revolutions per day: 15.28293236
mean anomaly at epoch: 313.5358°
orbit number at epoch: 39493

The dashed part of the orbit path shows where the satellite is in the earth's shadow,  

DLR